When you browse on this site, cookies collect data to enhance your experience and personalize the content and advertising you see.
Visit our Privacy Policy to learn more. By continuing to use the site, you agree to this use of cookies and data.
  • In Hungary
  • List of Countries
  • For 7 days
  • Water Temperature
  • Weather Map
  • News
  • Weather Widgets
  • user-avatar
    Login

    Hourly Weather Valdivia

    Today, 31 May, Sunday

    Time Temperature Precipitation Wind Pressure Humidity
    00:00 +23°C° 0 mm 0 mps 727 mmHg 94%
    01:00 +22°C° 0 mm 0 mps 727 mmHg 94%
    02:00 +22°C° 0 mm 0 mps 727 mmHg 94%
    03:00 +24°C° 0 mm 1 mps 727 mmHg 94%
    04:00 +23°C° 0 mm 1 mps 727 mmHg 94%
    05:00 +24°C° 0 mm 1 mps 727 mmHg 92%
    06:00 +23°C° 0 mm 0 mps 727 mmHg 89%
    07:00 +23°C° 0 mm 0 mps 728 mmHg 86%
    08:00 +27°C° 0 mm 1 mps 728 mmHg 79%
    09:00 +29°C° 0 mm 1 mps 728 mmHg 72%
    10:00 +31°C° 0 mm 1 mps 729 mmHg 65%
    11:00 +31°C° 0.4 mm 1 mps 728 mmHg 68%
    12:00 +31°C° 0.4 mm 1 mps 727 mmHg 70%
    13:00 +31°C° 0.4 mm 1 mps 726 mmHg 73%
    14:00 +30°C° 1.5 mm 1 mps 726 mmHg 80%
    15:00 +30°C° 1.5 mm 1 mps 725 mmHg 88%
    16:00 +29°C° 1.5 mm 1 mps 725 mmHg 95%
    17:00 +28°C° 1.2 mm 1 mps 725 mmHg 96%
    18:00 +25°C° 1.2 mm 0 mps 726 mmHg 97%
    19:00 +24°C° 1.2 mm 0 mps 726 mmHg 98%
    20:00 +24°C° 1.5 mm 0 mps 727 mmHg 98%
    21:00 +23°C° 1.5 mm 0 mps 727 mmHg 98%
    22:00 +23°C° 1.5 mm 0 mps 728 mmHg 98%
    23:00 +23°C° 1.4 mm 0 mps 728 mmHg 98%

    Tomorrow, 1 June, Monday

    Time Temperature Precipitation Wind Pressure Humidity
    00:00 +23°C° 1.4 mm 0 mps 727 mmHg 99%
    01:00 +23°C° 1.4 mm 0 mps 727 mmHg 99%
    02:00 +23°C° 1.4 mm 0 mps 727 mmHg 99%
    03:00 +23°C° 1.4 mm 0 mps 727 mmHg 99%
    04:00 +23°C° 1.4 mm 0 mps 727 mmHg 99%
    05:00 +23°C° 2.2 mm 0 mps 727 mmHg 99%
    06:00 +25°C° 2.2 mm 1 mps 727 mmHg 99%
    07:00 +25°C° 2.2 mm 1 mps 728 mmHg 98%
    08:00 +25°C° 1.2 mm 1 mps 728 mmHg 97%
    09:00 +26°C° 1.2 mm 1 mps 728 mmHg 95%
    10:00 +26°C° 1.2 mm 1 mps 729 mmHg 93%
    11:00 +28°C° 0.1 mm 1 mps 728 mmHg 82%
    12:00 +30°C° 0.1 mm 1 mps 727 mmHg 71%
    13:00 +33°C° 0.1 mm 1 mps 727 mmHg 60%
    14:00 +32°C° 0.2 mm 1 mps 726 mmHg 65%
    15:00 +31°C° 0.2 mm 1 mps 725 mmHg 71%
    16:00 +30°C° 0.2 mm 1 mps 725 mmHg 76%
    17:00 +29°C° 0.5 mm 1 mps 725 mmHg 83%
    18:00 +25°C° 0.5 mm 0 mps 725 mmHg 91%
    19:00 +24°C° 0.5 mm 0 mps 725 mmHg 98%
    20:00 +24°C° 0.1 mm 0 mps 726 mmHg 98%
    21:00 +24°C° 0.1 mm 0 mps 727 mmHg 98%
    22:00 +23°C° 0.1 mm 0 mps 727 mmHg 98%
    23:00 +23°C° 0.1 mm 0 mps 727 mmHg 98%

    Day after tomorrow, 2 June, Tuesday

    Time Temperature Precipitation Wind Pressure Humidity
    00:00 +23°C° 0.1 mm 0 mps 727 mmHg 98%
    01:00 +23°C° 0.1 mm 0 mps 726 mmHg 98%
    02:00 +23°C° 0.5 mm 0 mps 726 mmHg 98%
    03:00 +23°C° 0.5 mm 0 mps 726 mmHg 98%
    04:00 +23°C° 0.5 mm 0 mps 726 mmHg 98%
    05:00 +23°C° 0.3 mm 0 mps 726 mmHg 98%
    06:00 +23°C° 0.3 mm 0 mps 727 mmHg 98%
    07:00 +23°C° 0.3 mm 0 mps 727 mmHg 98%
    08:00 +24°C° 1.3 mm 0 mps 727 mmHg 97%
    09:00 +25°C° 1.3 mm 0 mps 727 mmHg 96%
    10:00 +28°C° 1.3 mm 1 mps 728 mmHg 95%
    11:00 +28°C° 0.8 mm 1 mps 727 mmHg 92%
    12:00 +29°C° 0.8 mm 1 mps 726 mmHg 89%
    13:00 +29°C° 0.8 mm 1 mps 725 mmHg 86%
    14:00 +29°C° 0.6 mm 1 mps 725 mmHg 86%
    15:00 +27°C° 0.6 mm 0 mps 724 mmHg 87%
    16:00 +27°C° 0.6 mm 0 mps 724 mmHg 87%
    17:00 +26°C° 0.3 mm 0 mps 724 mmHg 91%
    18:00 +25°C° 0.3 mm 0 mps 725 mmHg 94%
    19:00 +24°C° 0.3 mm 0 mps 725 mmHg 98%
    20:00 +24°C° 0.2 mm 0 mps 725 mmHg 98%
    21:00 +24°C° 0.2 mm 0 mps 726 mmHg 98%
    22:00 +23°C° 0.2 mm 0 mps 726 mmHg 98%
    23:00 +23°C° 0.4 mm 0 mps 726 mmHg 98%

    3 June, Wednesday

    Time Temperature Precipitation Wind Pressure Humidity
    00:00 +23°C° 0.4 mm 0 mps 726 mmHg 98%
    01:00 +25°C° 0.4 mm 1 mps 726 mmHg 97%
    02:00 +24°C° 0.1 mm 1 mps 726 mmHg 97%
    03:00 +24°C° 0.1 mm 1 mps 725 mmHg 97%
    04:00 +24°C° 0.1 mm 1 mps 725 mmHg 97%
    05:00 +24°C° 0.1 mm 1 mps 726 mmHg 96%
    06:00 +25°C° 0.1 mm 1 mps 726 mmHg 94%
    07:00 +25°C° 0.1 mm 1 mps 726 mmHg 93%
    08:00 +27°C° 0.4 mm 1 mps 727 mmHg 89%
    09:00 +29°C° 0.4 mm 1 mps 727 mmHg 84%
    10:00 +30°C° 0.4 mm 1 mps 727 mmHg 80%
    11:00 +30°C° 1.3 mm 1 mps 726 mmHg 84%
    12:00 +30°C° 1.3 mm 1 mps 726 mmHg 88%
    13:00 +30°C° 1.3 mm 1 mps 725 mmHg 91%
    14:00 +29°C° 1.6 mm 1 mps 724 mmHg 93%
    15:00 +26°C° 1.6 mm 0 mps 724 mmHg 95%
    16:00 +26°C° 1.6 mm 0 mps 724 mmHg 97%
    17:00 +25°C° 1.2 mm 0 mps 724 mmHg 97%
    18:00 +24°C° 1.2 mm 0 mps 725 mmHg 98%
    19:00 +24°C° 1.2 mm 0 mps 725 mmHg 98%
    20:00 +24°C° 0.8 mm 0 mps 726 mmHg 98%
    21:00 +23°C° 0.8 mm 0 mps 726 mmHg 98%
    22:00 +25°C° 0.8 mm 1 mps 727 mmHg 98%
    23:00 +25°C° 0.8 mm 1 mps 726 mmHg 98%

    4 June, Thursday

    Time Temperature Precipitation Wind Pressure Humidity
    00:00 +25°C° 0.8 mm 1 mps 726 mmHg 98%
    01:00 +25°C° 0.8 mm 1 mps 726 mmHg 98%
    02:00 +24°C° 0.4 mm 1 mps 726 mmHg 97%
    03:00 +24°C° 0.4 mm 1 mps 725 mmHg 97%
    04:00 +24°C° 0.4 mm 1 mps 725 mmHg 97%
    05:00 +22°C° 0.4 mm 0 mps 726 mmHg 97%
    06:00 +22°C° 0.4 mm 0 mps 726 mmHg 96%
    07:00 +23°C° 0.4 mm 0 mps 726 mmHg 96%
    08:00 +24°C° 0.3 mm 0 mps 727 mmHg 93%
    09:00 +27°C° 0.3 mm 1 mps 727 mmHg 89%
    10:00 +28°C° 0.3 mm 1 mps 728 mmHg 86%
    11:00 +28°C° 0.3 mm 1 mps 727 mmHg 84%
    12:00 +29°C° 0.3 mm 1 mps 727 mmHg 82%
    13:00 +27°C° 0.3 mm 0 mps 726 mmHg 80%
    14:00 +29°C° 0.2 mm 1 mps 725 mmHg 82%
    15:00 +29°C° 0.2 mm 1 mps 725 mmHg 84%
    16:00 +28°C° 0.2 mm 1 mps 724 mmHg 87%
    17:00 +25°C° 0.1 mm 0 mps 724 mmHg 90%
    18:00 +25°C° 0.1 mm 0 mps 725 mmHg 93%
    19:00 +24°C° 0.1 mm 0 mps 725 mmHg 96%
    20:00 +24°C° 0.3 mm 0 mps 726 mmHg 95%
    21:00 +23°C° 0.3 mm 0 mps 726 mmHg 94%
    22:00 +23°C° 0.3 mm 0 mps 727 mmHg 93%
    23:00 +23°C° 0.3 mm 0 mps 726 mmHg 93%

    5 June, Friday

    Time Temperature Precipitation Wind Pressure Humidity
    00:00 +23°C° 0.3 mm 0 mps 726 mmHg 92%
    01:00 +23°C° 0.3 mm 0 mps 726 mmHg 92%
    02:00 +23°C° 0 mm 0 mps 726 mmHg 92%
    03:00 +22°C° 0 mm 0 mps 726 mmHg 93%
    04:00 +22°C° 0 mm 0 mps 725 mmHg 94%
    05:00 +23°C° 0 mm 0 mps 726 mmHg 92%
    06:00 +23°C° 0 mm 0 mps 726 mmHg 91%
    07:00 +24°C° 0 mm 0 mps 726 mmHg 89%
    08:00 +28°C° 0 mm 1 mps 726 mmHg 79%
    09:00 +30°C° 0 mm 1 mps 726 mmHg 69%
    10:00 +32°C° 0 mm 1 mps 726 mmHg 59%
    11:00 +33°C° 0.1 mm 1 mps 726 mmHg 61%
    12:00 +34°C° 0.1 mm 2 mps 725 mmHg 62%
    13:00 +34°C° 0.1 mm 2 mps 724 mmHg 63%
    14:00 +32°C° 1 mm 1 mps 724 mmHg 72%
    15:00 +31°C° 1 mm 1 mps 723 mmHg 81%
    16:00 +30°C° 1 mm 1 mps 723 mmHg 90%
    17:00 +29°C° 1.8 mm 1 mps 723 mmHg 93%
    18:00 +25°C° 1.8 mm 0 mps 724 mmHg 95%
    19:00 +24°C° 1.8 mm 0 mps 724 mmHg 98%
    20:00 +24°C° 2.4 mm 0 mps 725 mmHg 98%
    21:00 +24°C° 2.4 mm 0 mps 726 mmHg 98%
    22:00 +24°C° 2.4 mm 0 mps 726 mmHg 98%
    23:00 +24°C° 4 mm 0 mps 726 mmHg 98%
    Show more